Temp_Advection
nan nan nan nan nan nan nan nan nan nan nan nan nan nan nan nan nan nan nan nan nan nan nan nan nan nan nan nan nan nan nan nan nan nan nan nan nan nan nan nan nan nan
nan 0 -0 -0 -0 -0 -0 0 0 0 -1 -0 -0 -0 0 1 0 -0 -1 -0 0 0 0 0 0 0 1 0 0 -0 -0 0 0 0 -0 -0 -0 -1 -0 0 0 nan
nan 0 0 0 -0 -0 -0 -0 0 0 -0 -0 -0 -1 -0 1 1 0 -0 -1 -0 -0 -0 -0 0 1 1 0 -0 -0 -0 0 0 -0 -0 -0 -0 -0 0 0 -0 nan
nan -0 0 0 -0 -0 -0 -0 0 0 -0 -0 -0 -0 -1 -0 1 1 -0 -1 -1 -0 -0 0 0 0 0 1 0 -0 0 -0 0 0 -0 -0 -0 0 0 -0 -1 nan
nan -1 -0 -0 -0 -1 -0 0 0 0 0 -0 -0 -0 -0 -0 0 0 0 -0 -0 -0 -0 0 0 -0 0 0 0 0 0 0 -0 -0 -1 -1 0 0 -0 -0 -0 nan
nan -1 -1 -1 -1 -1 -0 -0 0 0 0 0 -0 -1 -0 0 0 -0 -0 0 0 0 -0 0 0 -0 -0 -0 0 0 0 0 -0 -1 -1 -0 0 -0 -0 0 0 nan
nan -1 -1 -1 -1 -0 -0 -0 0 0 0 0 -0 -0 -0 -0 -0 0 0 0 0 -0 -0 0 0 -0 -0 -0 0 0 1 0 -0 -1 -0 0 -0 -0 0 1 0 nan
nan -0 -1 -2 -2 -1 -0 -0 -0 -0 0 0 0 -0 -0 -0 -0 0 0 0 -0 -0 -0 0 0 -0 -0 -0 -0 0 0 0 -0 -0 0 0 -1 -0 0 0 -0 nan
nan -0 -1 -1 -2 -2 -1 -0 -0 -0 -0 0 0 -0 -1 -1 -0 0 0 -1 -1 -0 0 0 0 0 0 -0 0 0 0 0 -0 0 0 -0 -0 -0 -0 -0 -0 nan
nan -0 -0 -1 -1 -2 -2 -2 -1 -0 -0 -0 -0 0 -0 -1 -1 -0 -0 -1 -1 -0 0 0 0 0 0 0 0 0 -0 -0 -0 0 0 0 0 0 -0 -0 -0 nan
nan -0 -1 -1 -1 -1 -2 -2 -2 -1 -0 -0 -0 1 1 -0 -1 -1 -1 -0 -0 -0 -0 -0 -0 0 0 0 0 -0 -0 0 0 -0 0 0 0 -0 0 -0 -1 nan
nan -0 -1 -1 -1 -1 -1 -1 -2 -2 -2 -1 -1 0 1 0 -1 -1 -1 -0 -0 -0 -1 -1 -0 0 0 1 0 -0 0 0 -0 -0 0 0 -0 -0 0 -0 -1 nan
nan -0 -0 -0 -0 -1 -1 -1 -1 -2 -2 -1 -1 -1 -0 0 -0 -1 -1 -1 -1 -0 -1 -1 -1 -0 0 0 0 0 0 0 -1 -1 0 0 -0 0 0 -0 -1 nan
nan -0 -0 -0 -0 -1 -1 -1 -1 -1 -1 -1 -0 -1 -1 -1 -1 -1 -1 -1 -1 -1 -1 -1 -1 -1 -0 0 1 0 0 0 -0 -0 -0 1 0 0 -0 -0 -1 nan
nan -1 -0 -1 -1 -1 -1 -1 -2 -2 -2 -1 -0 0 0 -0 -1 -1 -1 -1 -1 -1 -1 -1 -1 -1 -0 0 0 -0 -0 0 1 0 -0 0 0 0 -0 -1 -0 nan
nan -0 -1 -1 -1 -1 -1 -1 -1 -2 -2 -1 -1 0 0 0 -0 -1 -2 -1 -1 -1 -1 -0 -0 -1 -1 -0 -0 -0 0 1 1 -0 -0 -0 0 0 -0 -1 -0 nan
nan -1 -0 -0 -1 -1 -1 -1 -1 -1 -2 -2 -1 -1 -0 -0 -0 -0 -1 -1 -1 -1 -1 -1 -0 -0 -1 -0 -0 0 0 0 0 -0 -1 -0 0 0 -0 -1 -0 nan
nan -1 -0 -0 -1 -1 -1 -1 -1 -1 -2 -2 -2 -2 -1 -1 -1 -1 -1 -1 -1 -1 -1 -1 -0 -0 -0 -0 -0 0 0 0 0 -0 -1 -0 0 0 -0 -0 -0 nan
nan -0 -0 -1 -0 -0 -0 -1 -1 -1 -2 -3 -3 -2 -2 -1 -1 -1 -1 -1 -1 -2 -1 -1 -1 -0 -0 -1 -0 0 0 0 0 -0 -1 -1 -1 -0 0 0 0 nan
nan -0 -1 -1 -0 -0 -0 -0 -1 -1 -2 -2 -2 -3 -3 -2 -2 -2 -2 -1 -1 -2 -2 -1 -1 -0 -0 -0 -0 -0 0 0 0 -0 -0 -1 -1 0 0 0 0 nan
nan -0 -0 -0 -0 -1 -0 -0 -0 -0 -1 -1 -2 -2 -3 -3 -2 -3 -2 -2 -2 -2 -2 -1 -1 -1 -1 -0 -0 -0 -0 -0 0 0 -0 -0 -0 0 -0 -0 0 nan
nan 0 -0 -0 -0 -0 -0 -0 -0 -0 -0 -1 -1 -1 -2 -2 -2 -2 -2 -2 -2 -3 -2 -2 -1 -1 -1 -1 -1 -0 -0 -0 -0 -0 0 -0 -0 0 -0 0 0 nan
nan 0 -0 -0 -0 -0 -0 -0 -0 -0 -0 -0 -0 -1 -1 -1 -2 -2 -1 -1 -1 -2 -3 -3 -2 -1 -1 -1 -1 -1 -0 -0 -1 -0 -0 -0 0 0 -0 0 -0 nan
nan -0 0 0 0 0 -0 -0 -0 -0 -0 -0 -0 -0 -0 -1 -1 -1 -1 -1 -1 -1 -2 -2 -3 -2 -2 -1 -1 -1 -1 -1 -0 -0 -0 -0 0 0 -0 -0 -0 nan
nan -0 0 0 0 0 0 0 0 0 0 -0 -0 -0 -0 -0 -1 -1 -1 -1 -1 -0 -0 -1 -2 -2 -3 -2 -1 -1 -1 -1 -0 0 -0 -0 0 -0 -0 0 0 nan
nan nan nan nan nan nan nan nan nan nan nan nan nan nan nan nan nan nan nan nan nan nan nan nan nan nan nan nan nan nan nan nan nan nan nan nan nan nan nan nan nan nan
Wind_Speed
7 8 10 10 10 11 13 14 15 16 16 16 17 17 17 16 15 14 14 13 14 15 16 16 18 21 23 25 25 26 27 27 29 28 24 24 24 22 22 24 24 24
7 8 8 9 9 10 13 17 17 17 17 16 17 18 19 19 17 16 14 14 14 15 17 18 19 21 22 24 25 26 28 28 29 28 26 25 23 22 23 23 23 24
8 8 9 10 10 9 12 16 18 17 17 16 18 19 20 21 20 16 14 14 15 16 17 19 20 21 22 24 24 25 28 28 29 29 27 25 24 23 24 23 23 24
10 10 10 11 12 11 11 13 15 16 16 16 17 18 18 20 20 17 14 14 16 17 17 19 21 22 23 24 24 26 28 29 28 27 26 26 25 24 24 23 24 26
12 11 11 11 13 14 13 13 13 14 16 16 17 17 17 19 20 18 15 15 17 18 19 19 20 23 24 23 24 26 28 27 27 26 26 26 24 24 25 24 25 27
13 11 11 12 12 14 15 15 14 13 14 15 15 16 17 19 20 18 17 17 18 18 20 20 20 22 24 24 25 26 27 27 25 26 26 25 24 25 26 25 25 27
15 14 13 14 14 14 14 15 17 17 16 16 15 15 16 17 19 19 18 18 19 19 19 19 20 21 23 25 27 27 29 27 24 25 26 25 25 26 26 26 26 27
16 15 15 16 15 14 15 15 17 18 19 19 19 18 16 16 18 19 19 19 19 20 20 20 20 21 22 25 27 29 30 29 26 27 27 26 26 27 26 27 27 27
17 17 16 16 17 15 15 16 17 18 18 19 20 21 19 17 17 19 20 21 21 22 23 22 21 22 22 23 26 28 29 29 29 28 28 27 28 27 26 27 27 26
18 17 16 18 18 16 16 16 16 18 19 19 19 21 21 20 19 19 21 23 24 25 25 24 23 23 24 25 27 28 27 28 29 29 28 27 28 28 27 27 27 27
19 17 17 20 20 17 17 17 17 18 19 20 21 20 21 20 20 21 22 23 24 25 25 25 24 23 24 26 27 28 27 25 26 26 26 26 27 27 26 26 27 28
20 19 20 21 21 19 19 19 19 19 20 21 22 22 22 21 20 21 22 23 24 23 22 25 26 23 23 25 26 26 24 23 24 26 26 26 25 25 25 26 27 27
21 20 21 21 20 20 20 20 20 21 21 21 22 23 23 22 21 20 20 22 24 23 21 23 25 25 25 25 26 26 23 22 25 27 27 26 24 23 25 26 27 26
20 20 20 20 20 19 19 19 20 21 21 21 22 22 23 23 22 21 20 19 21 22 21 22 25 27 27 25 25 25 25 25 27 28 27 27 26 24 25 26 26 27
20 19 20 20 20 20 20 20 20 21 21 21 21 22 22 22 22 23 23 21 19 18 19 21 25 26 25 25 23 23 24 26 28 27 25 26 25 23 24 25 25 27
20 20 20 21 21 21 21 21 21 22 22 22 21 21 22 21 21 22 22 23 21 18 17 19 23 24 24 24 24 24 24 25 27 26 24 25 26 23 23 24 25 26
20 20 21 21 22 22 21 22 22 22 23 24 22 22 21 21 21 21 21 22 23 21 20 19 21 22 24 25 25 27 28 28 28 28 26 26 27 26 24 24 25 26
20 21 21 21 22 22 22 22 22 22 25 27 25 23 23 22 21 21 20 20 21 22 22 22 21 20 22 25 26 27 29 29 29 30 28 26 28 28 26 25 26 28
20 20 21 22 22 22 22 23 23 23 25 28 28 28 27 25 23 22 20 19 19 20 20 21 23 20 19 22 25 27 29 28 28 29 28 26 28 30 28 27 28 28
20 21 21 22 22 21 22 23 24 24 24 26 28 31 32 31 28 26 23 20 18 18 19 19 21 21 19 18 22 26 28 28 28 27 26 28 29 29 29 29 29 28
20 20 21 21 21 22 22 22 22 22 23 24 25 28 32 34 33 32 30 27 23 19 17 18 20 22 22 21 22 23 25 28 29 28 28 30 29 27 27 28 27 27
20 20 21 21 22 22 22 22 22 21 21 22 22 23 27 32 34 34 34 32 29 25 20 17 18 20 23 24 24 25 25 27 29 30 28 27 27 26 26 26 26 25
21 21 21 21 22 23 22 22 23 23 22 21 21 21 23 27 31 33 34 34 32 31 27 22 19 19 20 21 23 25 26 26 29 31 28 25 25 25 23 23 26 27
21 21 21 22 23 23 22 22 22 23 24 22 20 20 20 22 24 27 32 35 34 33 31 28 24 22 20 20 20 22 23 24 26 25 23 24 26 26 24 25 26 26
21 21 22 22 23 23 23 23 21 21 23 23 21 20 19 20 20 22 28 33 34 33 32 31 28 25 23 21 19 19 20 21 20 18 19 25 28 28 28 27 25 23
20 21 21 22 23 23 23 24 22 21 22 23 23 22 21 21 21 20 22 27 31 33 33 33 31 29 27 24 21 20 18 16 14 13 19 26 28 28 28 27 25 24
Wind_Direction
314 300 286 277 281 291 290 288 289 288 282 279 277 275 273 268 263 259 260 262 260 259 255 244 234 229 228 230 231 235 240 237 231 228 224 224 227 229 230 230 229 230
314 300 287 277 274 286 291 288 289 291 287 280 277 276 274 272 267 261 260 261 260 258 257 251 243 236 232 233 234 236 237 234 229 227 226 230 234 234 234 232 231 233
313 300 288 280 273 280 292 294 294 295 292 286 283 279 275 275 276 271 266 266 264 261 259 254 248 242 238 238 238 237 237 233 228 227 227 231 235 235 233 231 231 233
326 314 298 285 278 274 280 290 296 298 295 291 288 285 279 276 278 276 272 270 268 265 262 257 251 245 241 241 241 238 236 232 227 226 228 230 232 232 230 228 229 230
334 325 313 299 289 283 278 282 292 298 297 294 289 288 286 281 278 277 276 272 270 268 265 261 255 249 244 241 241 239 235 233 230 228 228 231 233 231 228 227 228 229
343 340 326 312 301 293 288 283 279 280 286 290 288 285 282 278 277 279 279 274 269 268 267 262 255 251 248 242 239 239 235 232 231 230 231 234 235 231 228 228 230 231
349 348 335 322 313 301 296 290 281 274 272 273 276 280 281 278 278 279 277 273 269 266 265 261 255 252 250 245 240 237 234 230 228 232 232 231 234 234 231 228 231 234
351 349 342 333 326 315 305 298 293 287 280 274 270 270 273 277 281 283 281 277 274 271 267 262 258 254 250 247 243 239 236 232 230 233 232 228 231 234 231 229 231 233
355 351 349 345 338 328 317 307 303 301 295 288 280 272 271 273 278 281 282 281 279 277 274 270 266 261 253 247 245 243 239 236 234 233 230 227 230 232 229 229 229 229
357 353 353 351 343 336 330 320 312 309 305 300 291 282 281 284 282 277 278 281 279 274 272 271 270 266 259 252 248 245 239 234 233 233 231 228 228 230 229 229 229 228
355 353 354 353 345 341 341 332 320 312 307 304 299 291 289 293 292 282 275 276 276 272 271 272 272 269 264 260 255 249 239 232 230 232 233 231 229 232 231 229 231 232
356 354 354 352 348 346 344 337 327 319 312 307 303 298 292 291 293 290 282 275 273 274 274 274 272 269 266 264 262 254 244 237 236 237 238 237 235 233 230 228 231 232
356 354 352 350 349 348 344 338 332 325 318 313 308 303 297 289 286 290 290 284 279 279 278 274 270 267 265 265 264 257 248 242 243 243 243 242 238 231 226 227 231 231
355 354 353 351 349 349 346 343 338 330 323 319 314 309 303 294 287 283 286 288 286 284 282 277 271 267 264 265 264 258 252 248 247 245 242 242 240 233 230 232 232 231
355 355 354 353 352 352 351 349 345 338 333 326 320 314 308 300 293 285 280 282 285 285 283 277 272 268 265 262 260 257 255 252 249 245 240 241 242 235 232 235 232 228
357 357 356 356 356 355 354 353 350 345 343 337 328 321 314 307 302 294 284 280 279 280 280 279 275 272 268 263 255 251 251 249 248 249 245 245 244 233 229 235 231 226
359 359 359 358 358 357 356 356 354 352 352 349 340 332 325 317 312 307 297 287 280 275 272 275 276 274 272 267 257 249 247 248 251 254 251 250 249 238 231 233 228 226
2 1 1 0 359 359 359 358 358 358 1 1 356 348 341 332 325 320 312 301 291 280 271 267 270 275 272 264 257 249 246 249 253 255 252 249 247 242 236 231 227 227
4 3 4 2 1 1 360 359 360 1 4 5 3 0 356 349 342 336 328 317 303 290 278 265 263 269 272 265 256 248 244 246 250 253 253 248 244 243 240 234 229 228
4 4 3 2 2 1 359 360 0 0 2 5 5 4 3 360 355 350 345 338 324 305 289 275 265 264 268 267 259 250 246 246 245 246 247 244 244 243 238 235 232 230
4 3 3 2 1 0 359 359 359 359 360 3 4 4 5 4 1 358 354 350 345 331 308 290 278 270 266 264 261 255 250 247 245 245 242 241 244 240 232 232 233 231
5 3 3 3 1 1 0 359 359 358 357 359 0 2 5 7 7 4 360 355 351 346 334 314 297 285 274 268 263 260 258 253 247 245 242 239 240 237 231 232 234 230
8 6 4 4 3 2 1 359 360 359 357 357 359 359 2 8 10 9 6 3 357 353 348 337 323 310 295 282 273 267 264 259 251 247 242 237 236 232 224 224 228 227
11 9 8 7 5 3 1 359 358 359 359 358 357 358 359 3 7 10 11 10 6 2 357 349 341 334 321 306 294 283 273 264 258 252 242 234 229 219 210 214 220 222
11 11 10 9 8 6 4 1 358 359 0 360 358 358 357 358 1 5 9 12 12 9 6 0 354 349 342 331 318 307 293 277 267 255 239 234 226 214 213 222 223 220
11 11 10 10 9 8 7 5 4 1 0 2 2 359 356 357 0 3 6 12 14 15 14 10 6 2 357 350 341 330 314 291 268 243 232 232 228 219 218 222 222 221
Height
1521 1520 1519 1519 1518 1518 1517 1516 1514 1513 1512 1511 1510 1509 1508 1506 1504 1503 1503 1503 1502 1502 1501 1501 1502 1503 1504 1505 1506 1507 1508 1509 1511 1513 1516 1518 1519 1519 1519 1519 1521 1522
1520 1519 1518 1517 1516 1516 1516 1514 1513 1512 1511 1510 1508 1507 1506 1505 1503 1500 1500 1500 1500 1500 1500 1499 1500 1500 1501 1502 1503 1504 1505 1506 1507 1509 1512 1514 1515 1515 1516 1517 1519 1520
1519 1518 1517 1516 1515 1515 1514 1513 1512 1511 1510 1509 1508 1507 1505 1504 1502 1500 1498 1497 1498 1498 1498 1498 1498 1498 1499 1500 1501 1502 1502 1503 1504 1506 1507 1509 1511 1512 1513 1515 1517 1518
1518 1517 1516 1515 1514 1513 1512 1511 1510 1510 1509 1508 1507 1506 1505 1503 1502 1500 1497 1495 1496 1496 1496 1496 1496 1496 1497 1497 1498 1500 1500 1501 1502 1503 1504 1506 1507 1509 1510 1513 1514 1515
1518 1516 1515 1514 1513 1512 1511 1510 1509 1508 1507 1507 1506 1505 1504 1503 1501 1499 1496 1495 1495 1495 1495 1495 1494 1494 1494 1495 1496 1497 1499 1500 1501 1501 1502 1503 1505 1506 1507 1509 1511 1513
1518 1516 1514 1512 1511 1510 1509 1508 1507 1506 1505 1505 1504 1504 1503 1502 1499 1497 1496 1495 1494 1494 1493 1493 1493 1493 1493 1493 1493 1493 1495 1498 1498 1498 1499 1500 1502 1503 1504 1506 1508 1510
1519 1516 1513 1511 1510 1509 1507 1506 1505 1504 1503 1502 1502 1502 1501 1500 1498 1496 1495 1494 1493 1493 1492 1492 1492 1492 1491 1491 1491 1491 1492 1494 1496 1495 1496 1497 1499 1500 1501 1503 1505 1507
1518 1516 1513 1511 1509 1508 1506 1505 1503 1502 1501 1500 1499 1499 1498 1498 1496 1495 1493 1492 1491 1491 1491 1491 1491 1491 1490 1489 1489 1489 1490 1491 1492 1492 1493 1494 1495 1497 1498 1500 1502 1504
1517 1515 1513 1511 1509 1507 1505 1504 1502 1501 1499 1498 1497 1496 1495 1495 1495 1493 1492 1491 1490 1489 1489 1490 1489 1489 1489 1488 1487 1487 1487 1488 1489 1489 1490 1491 1492 1493 1496 1497 1499 1501
1517 1515 1513 1512 1509 1507 1505 1503 1502 1500 1498 1496 1494 1493 1493 1493 1493 1492 1490 1489 1488 1487 1487 1487 1487 1488 1488 1487 1486 1485 1485 1486 1486 1486 1487 1488 1489 1491 1493 1494 1496 1497
1517 1515 1513 1512 1510 1507 1505 1503 1501 1499 1497 1495 1493 1492 1490 1490 1490 1490 1489 1488 1487 1486 1486 1485 1485 1487 1488 1487 1485 1484 1484 1484 1483 1483 1484 1485 1487 1488 1490 1491 1492 1493
1517 1516 1514 1512 1510 1508 1505 1503 1500 1498 1496 1494 1492 1490 1489 1488 1488 1488 1488 1487 1485 1485 1485 1484 1483 1484 1486 1485 1484 1484 1483 1482 1481 1481 1482 1482 1484 1486 1488 1488 1489 1491
1519 1517 1515 1513 1510 1508 1505 1502 1500 1497 1495 1493 1491 1489 1487 1486 1486 1486 1486 1485 1484 1484 1484 1483 1482 1481 1482 1482 1482 1482 1481 1481 1480 1479 1479 1480 1481 1484 1486 1487 1488 1489
1520 1518 1516 1513 1511 1508 1505 1502 1500 1497 1494 1492 1490 1488 1486 1485 1484 1483 1483 1482 1482 1483 1483 1482 1480 1479 1478 1478 1478 1478 1478 1478 1478 1476 1477 1478 1479 1481 1483 1484 1485 1487
1521 1518 1516 1514 1511 1509 1506 1503 1500 1497 1494 1492 1489 1487 1485 1484 1482 1481 1480 1480 1480 1480 1481 1480 1478 1476 1476 1476 1476 1475 1475 1475 1475 1474 1474 1475 1476 1478 1480 1481 1483 1484
1522 1519 1517 1514 1512 1509 1506 1503 1500 1497 1494 1491 1489 1486 1484 1482 1481 1480 1479 1478 1478 1478 1478 1477 1476 1475 1474 1474 1474 1473 1473 1473 1473 1474 1474 1474 1474 1475 1477 1478 1480 1483
1522 1520 1517 1515 1512 1509 1507 1504 1501 1498 1494 1491 1488 1486 1484 1481 1479 1478 1477 1476 1475 1475 1475 1474 1473 1473 1472 1471 1472 1472 1471 1471 1471 1472 1473 1473 1473 1473 1474 1476 1478 1480
1523 1521 1518 1516 1513 1510 1507 1505 1502 1498 1495 1492 1489 1486 1483 1481 1478 1477 1475 1474 1472 1472 1472 1471 1470 1469 1468 1467 1468 1469 1469 1468 1468 1469 1470 1471 1472 1472 1472 1474 1476 1478
1524 1522 1519 1517 1514 1511 1508 1505 1502 1499 1496 1492 1489 1487 1484 1481 1478 1475 1473 1472 1470 1469 1469 1469 1467 1466 1464 1463 1464 1465 1465 1466 1466 1467 1469 1470 1471 1471 1472 1473 1474 1475
1525 1523 1520 1518 1515 1512 1510 1507 1503 1500 1497 1494 1491 1488 1484 1481 1478 1475 1472 1470 1469 1467 1467 1466 1465 1464 1462 1461 1461 1461 1462 1463 1463 1466 1468 1469 1470 1471 1471 1472 1473 1474
1526 1524 1521 1519 1516 1514 1511 1508 1505 1502 1499 1495 1492 1489 1486 1482 1478 1475 1472 1470 1468 1466 1465 1464 1463 1461 1460 1459 1459 1459 1459 1459 1460 1463 1465 1466 1467 1469 1469 1470 1471 1472
1528 1525 1522 1520 1517 1515 1512 1509 1506 1504 1500 1497 1494 1491 1488 1484 1480 1477 1473 1470 1468 1465 1463 1462 1461 1459 1458 1457 1457 1456 1456 1456 1457 1459 1461 1462 1464 1465 1466 1467 1468 1470
1529 1527 1524 1521 1519 1516 1513 1510 1508 1505 1502 1499 1496 1493 1490 1486 1482 1479 1476 1472 1469 1465 1462 1460 1459 1457 1456 1455 1454 1453 1453 1453 1453 1454 1456 1458 1460 1462 1463 1463 1464 1467
1531 1528 1525 1523 1521 1518 1515 1512 1509 1506 1503 1501 1498 1496 1492 1489 1485 1482 1479 1475 1471 1467 1464 1461 1458 1456 1454 1453 1452 1451 1450 1450 1450 1452 1454 1455 1456 1458 1459 1459 1461 1465
1532 1530 1527 1525 1523 1520 1517 1515 1511 1509 1506 1503 1500 1497 1495 1492 1488 1485 1481 1478 1474 1470 1466 1462 1459 1456 1453 1451 1450 1449 1448 1448 1448 1450 1452 1452 1451 1453 1455 1456 1459 1463
1533 1531 1529 1527 1525 1522 1520 1517 1513 1511 1508 1505 1502 1500 1497 1494 1491 1488 1484 1481 1477 1473 1468 1465 1461 1457 1454 1451 1449 1448 1447 1447 1447 1448 1450 1450 1449 1450 1452 1454 1457 1460